FW5767 Weather Reports


Display with metric or nautical units.
time (UTC)temp
F
wind
direction
speed
MPH
gust
MPH
rain 1hr
in
rain 24hr
in
rain mn
in
humidity
%
barometer
mb
20210805024311 56 72 0.0 0.0 0.00 0.02 0.00 90 1010.5
20210805023811 56 72 0.0 0.0 0.00 0.02 0.00 91 1010.5
20210805023306 56 72 0.0 0.0 0.00 0.02 0.00 90 1010.5
20210805022807 56 72 0.0 0.0 0.00 0.02 0.00 91 1010.7
20210805022306 57 72 0.0 0.0 0.00 0.02 0.00 91 1010.7
20210805021806 57 72 0.0 0.0 0.00 0.02 0.00 90 1010.6
20210805021306 57 72 0.0 0.0 0.00 0.02 0.00 91 1010.7
20210805020807 57 72 0.0 0.0 0.00 0.02 0.00 91 1010.8
20210805020306 57 72 0.0 0.0 0.00 0.02 0.00 91 1010.7
20210805015806 57 72 0.0 0.0 0.00 0.02 0.00 91 1010.7
20210805015306 57 72 0.0 0.0 0.00 0.02 0.00 91 1010.9
20210805014805 57 72 0.0 0.0 0.00 0.02 0.00 91 1010.9
20210805014302 57 72 0.0 0.0 0.00 0.02 0.00 91 1010.9
20210805013803 57 72 0.0 0.0 0.00 0.02 0.00 91 1010.9
20210805013303 57 72 0.0 0.0 0.00 0.02 0.00 91 1011.0
20210805012802 57 72 0.0 0.0 0.00 0.02 0.00 90 1011.0
20210805012259 57 72 0.0 0.0 0.00 0.02 0.00 90 1011.0
20210805011758 57 72 0.0 0.0 0.00 0.02 0.00 90 1011.1
20210805011258 57 72 0.0 0.0 0.00 0.02 0.00 90 1011.2
20210805010801 58 72 0.0 0.0 0.00 0.02 0.00 90 1011.2
20210805010300 58 72 0.0 0.0 0.00 0.02 0.00 90 1011.3
20210805005758 58 72 0.0 0.0 0.00 0.02 0.00 90 1011.3
20210805005259 58 72 0.0 0.0 0.00 0.02 0.00 90 1011.3
20210805004759 58 72 0.0 0.0 0.00 0.02 0.00 90 1011.5
20210805004301 58 72 0.0 0.0 0.00 0.02 0.00 90 1011.4
20210805003758 58 72 0.0 0.0 0.00 0.02 0.00 90 1011.4
20210805003258 58 72 0.0 0.0 0.00 0.02 0.00 90 1011.5
20210805002756 58 72 0.0 0.0 0.00 0.02 0.00 90 1011.5
20210805002256 58 72 0.0 0.0 0.00 0.02 0.00 90 1011.5
20210805001756 58 72 0.0 0.0 0.00 0.02 0.00 90 1011.6
20210805001256 58 72 0.0 0.0 0.00 0.02 0.00 89 1011.7
20210805000756 58 72 0.0 0.0 0.00 0.02 0.00 89 1011.8
20210805000256 58 72 0.0 2.0 0.00 0.02 0.00 90 1011.7
20210804235756 58 72 0.0 0.0 0.00 0.02 0.00 89 1011.7
20210804235254 58 72 0.0 2.0 0.00 0.02 0.00 89 1011.8
20210804234754 58 72 0.0 2.0 0.00 0.02 0.00 89 1011.8
20210804234257 58 72 0.0 2.0 0.00 0.02 0.00 89 1011.9
20210804233755 58 72 1.0 4.0 0.00 0.02 0.00 89 1011.9
20210804233255 58 72 1.0 4.0 0.00 0.02 0.00 89 1011.9
20210804232754 58 72 0.0 3.0 0.00 0.02 0.00 89 1011.9
20210804232255 58 74 0.0 0.0 0.00 0.02 0.00 89 1012.0
20210804231754 58 74 0.0 0.0 0.00 0.02 0.00 89 1012.1
20210804231254 58 74 0.0 0.0 0.00 0.02 0.00 89 1012.1
20210804230754 58 74 0.0 0.0 0.00 0.02 0.00 88 1012.1
20210804230255 59 74 0.0 0.0 0.00 0.02 0.00 88 1012.2
20210804225754 59 74 0.0 3.0 0.00 0.02 0.00 88 1012.3
20210804225253 59 74 0.0 3.0 0.00 0.02 0.00 88 1012.3
20210804224753 59 74 1.0 3.0 0.00 0.02 0.00 88 1012.3
20210804224252 59 74 0.0 3.0 0.00 0.02 0.00 88 1012.3
20210804223752 59 109 0.0 0.0 0.00 0.02 0.00 88 1012.4
20210804223251 59 109 0.0 0.0 0.00 0.02 0.00 88 1012.5
20210804222749 59 109 0.0 0.0 0.00 0.02 0.00 88 1012.5
20210804222250 59 109 0.0 0.0 0.00 0.02 0.00 88 1012.5
20210804221749 60 109 0.0 0.0 0.00 0.02 0.00 88 1012.4
20210804221250 60 109 0.0 0.0 0.00 0.02 0.00 88 1012.5
20210804220752 60 109 0.0 0.0 0.00 0.02 0.00 87 1012.5
20210804220248 60 109 0.0 0.0 0.00 0.02 0.00 87 1012.5
20210804215747 60 109 0.0 0.0 0.00 0.02 0.02 87 1012.5
20210804215245 60 109 0.0 0.0 0.00 0.02 0.02 87 1012.6
20210804214745 60 109 0.0 0.0 0.00 0.02 0.02 87 1012.6
20210804214246 60 109 0.0 0.0 0.00 0.02 0.02 86 1012.5
20210804213744 60 109 0.0 0.0 0.00 0.02 0.02 86 1012.6
20210804213246 60 109 0.0 0.0 0.00 0.02 0.02 86 1012.6
20210804212744 60 109 0.0 2.0 0.00 0.02 0.02 86 1012.7
20210804212244 60 109 0.0 2.0 0.00 0.02 0.02 86 1012.6
20210804211744 60 109 0.0 3.0 0.00 0.02 0.02 85 1012.5
20210804211244 61 109 1.0 3.0 0.00 0.02 0.02 85 1012.5
20210804210744 61 109 0.0 2.0 0.00 0.02 0.02 84 1012.5
20210804210244 61 109 0.0 2.0 0.00 0.02 0.02 85 1012.5
20210804205745 61 109 0.0 2.0 0.00 0.02 0.02 85 1012.5
20210804205247 61 109 0.0 2.0 0.00 0.02 0.02 85 1012.5
20210804204742 61 109 1.0 2.0 0.00 0.02 0.02 84 1012.5
20210804204242 61 109 0.0 2.0 0.00 0.02 0.02 83 1012.5
20210804203746 61 109 0.0 1.0 0.00 0.02 0.02 83 1012.6
20210804203244 62 109 0.0 1.0 0.00 0.02 0.02 83 1012.5
20210804202744 62 109 0.0 2.0 0.00 0.02 0.02 83 1012.4
20210804202245 62 109 0.0 2.0 0.00 0.02 0.02 82 1012.5
20210804201744 62 109 1.0 3.0 0.00 0.02 0.02 82 1012.6
20210804201244 62 109 1.0 3.0 0.00 0.02 0.02 82 1012.5
20210804200746 62 112 1.0 3.0 0.00 0.02 0.02 81 1012.5
20210804200243 62 112 1.0 3.0 0.00 0.02 0.02 81 1012.5
20210804195743 63 112 1.0 3.0 0.00 0.02 0.02 81 1012.5
20210804195244 63 112 1.0 3.0 0.00 0.02 0.02 81 1012.5
20210804194744 63 112 1.0 3.0 0.00 0.02 0.02 80 1012.6
20210804194242 63 113 0.0 3.0 0.00 0.02 0.02 80 1012.6
20210804193744 63 113 1.0 3.0 0.00 0.02 0.02 80 1012.6
20210804193246 63 113 1.0 3.0 0.00 0.02 0.02 80 1012.5
20210804192743 64 116 1.0 7.0 0.00 0.02 0.02 79 1012.4
20210804192243 64 116 2.0 6.0 0.00 0.02 0.02 79 1012.4
20210804191742 64 117 2.0 7.0 0.00 0.02 0.02 79 1012.3
20210804191245 64 106 2.0 7.0 0.00 0.02 0.02 79 1012.3
20210804190742 64 98 2.0 6.0 0.00 0.02 0.02 78 1012.4
20210804190240 65 98 1.0 4.0 0.00 0.02 0.02 79 1012.4
20210804185744 65 63 2.0 6.0 0.00 0.02 0.02 79 1012.3
20210804185240 65 84 2.0 6.0 0.00 0.02 0.02 79 1012.4
20210804184742 65 112 2.0 6.0 0.00 0.02 0.02 80 1012.3
20210804184241 65 92 3.0 8.0 0.00 0.02 0.02 79 1012.3
20210804183741 65 80 2.0 8.0 0.00 0.02 0.02 80 1012.3
20210804183241 65 68 2.0 8.0 0.00 0.02 0.02 79 1012.3
20210804182741 65 63 2.0 8.0 0.00 0.02 0.02 79 1012.3
20210804182242 65 67 1.0 5.0 0.00 0.02 0.02 79 1012.3
20210804181741 65 60 2.0 4.0 0.00 0.02 0.02 79 1012.3
20210804181240 65 85 2.0 4.0 0.00 0.02 0.02 79 1012.2
20210804180740 65 86 2.0 4.0 0.00 0.02 0.02 80 1012.3
20210804180240 65 86 1.0 3.0 0.00 0.02 0.02 80 1012.3
20210804175740 65 86 0.0 3.0 0.00 0.02 0.02 80 1012.2
20210804175241 64 86 1.0 4.0 0.00 0.02 0.02 80 1012.2
20210804174742 64 86 1.0 4.0 0.00 0.02 0.02 80 1012.1
20210804174242 64 86 1.0 4.0 0.00 0.02 0.02 80 1012.2
20210804173744 64 86 1.0 4.0 0.00 0.02 0.02 80 1012.2
20210804173240 63 86 1.0 4.0 0.00 0.02 0.02 80 1012.2
20210804172740 63 91 1.0 4.0 0.00 0.02 0.02 80 1012.2
20210804172241 63 91 1.0 3.0 0.00 0.02 0.02 79 1012.3
20210804171740 63 91 1.0 5.0 0.00 0.02 0.02 80 1012.3
20210804171242 64 91 1.0 5.0 0.00 0.02 0.02 81 1012.3
20210804170740 64 92 2.0 5.0 0.00 0.02 0.02 83 1012.3
20210804170238 64 72 2.0 7.0 0.00 0.02 0.02 84 1012.3
20210804165740 64 75 1.0 7.0 0.00 0.02 0.02 84 1012.5
20210804165239 64 121 2.0 4.0 0.00 0.02 0.02 84 1012.5
20210804164738 65 121 1.0 4.0 0.01 0.02 0.02 84 1012.7
20210804164242 64 202 0.0 4.0 0.02 0.02 0.02 84 1012.6
20210804163738 64 202 1.0 5.0 0.02 0.02 0.02 83 1012.7
20210804163236 64 202 1.0 4.0 0.02 0.02 0.02 83 1012.6
20210804162736 64 279 2.0 6.0 0.02 0.02 0.02 82 1012.6
20210804162238 64 271 3.0 6.0 0.02 0.02 0.02 81 1012.6
20210804161738 64 319 3.0 6.0 0.02 0.02 0.02 81 1012.7
20210804161234 64 296 3.0 6.0 0.02 0.02 0.02 80 1012.7
20210804160731 64 294 2.0 6.0 0.02 0.02 0.02 79 1012.7
20210804160231 64 277 1.0 3.0 0.02 0.02 0.02 81 1012.8
20210804155730 64 277 1.0 3.0 0.02 0.02 0.02 79 1012.8
20210804155232 64 277 1.0 3.0 0.02 0.02 0.02 80 1013.0
20210804154733 64 277 0.0 1.0 0.01 0.01 0.01 79 1013.0
20210804154229 63 277 2.0 10.0 0.00 0.00 0.00 78 1013.0
20210804153729 63 277 3.0 10.0 0.00 0.00 0.00 77 1013.0
20210804153230 64 289 5.0 10.0 0.00 0.00 0.00 77 1012.9
20210804152729 64 281 5.0 10.0 0.00 0.00 0.00 77 1012.9
20210804152228 65 274 4.0 8.0 0.00 0.00 0.00 75 1012.9
20210804151729 65 319 5.0 8.0 0.00 0.00 0.00 73 1012.9
20210804151230 65 324 5.0 8.0 0.00 0.00 0.00 73 1012.9
20210804150729 66 329 5.0 8.0 0.00 0.00 0.00 72 1013.0
20210804150233 67 340 4.0 8.0 0.00 0.01 0.00 71 1013.0
20210804145734 68 330 3.0 8.0 0.00 0.01 0.00 73 1012.9
20210804145231 68 355 2.0 8.0 0.00 0.01 0.00 72 1012.9
20210804144731 68 342 2.0 6.0 0.00 0.01 0.00 71 1012.8
20210804144228 69 331 2.0 5.0 0.00 0.01 0.00 70 1013.0
20210804143732 69 338 2.0 6.0 0.00 0.01 0.00 69 1012.9
20210804143226 69 34 2.0 6.0 0.00 0.01 0.00 67 1013.0
20210804142727 69 57 2.0 6.0 0.00 0.01 0.00 66 1012.9
20210804142224 69 90 2.0 7.0 0.00 0.01 0.00 67 1013.0
20210804141724 69 46 3.0 7.0 0.00 0.01 0.00 66 1013.0
20210804141222 70 49 4.0 8.0 0.00 0.01 0.00 66 1012.9
20210804140721 70 51 5.0 8.0 0.00 0.01 0.00 64 1012.9
20210804140220 70 30 4.0 9.0 0.00 0.01 0.00 66 1012.9
20210804135720 71 47 4.0 9.0 0.00 0.01 0.00 62 1012.9
20210804135220 71 47 3.0 6.0 0.00 0.01 0.00 63 1013.0
20210804134716 72 47 3.0 10.0 0.00 0.01 0.00 62 1013.1
20210804134216 72 81 4.0 10.0 0.00 0.01 0.00 62 1013.0
20210804133716 72 57 4.0 8.0 0.00 0.01 0.00 62 1013.0
20210804133216 73 66 4.0 7.0 0.00 0.01 0.00 61 1013.1
20210804132716 73 61 3.0 7.0 0.00 0.01 0.00 61 1013.1
20210804132214 72 42 2.0 4.0 0.00 0.01 0.00 60 1013.0
20210804131716 72 67 2.0 4.0 0.00 0.01 0.00 63 1013.1
20210804131215 72 48 3.0 9.0 0.00 0.01 0.00 63 1013.1
20210804130714 72 26 4.0 9.0 0.00 0.01 0.00 64 1013.1
20210804130213 72 88 3.0 8.0 0.00 0.01 0.00 65 1013.0
20210804125712 72 49 2.0 8.0 0.00 0.01 0.00 66 1013.1
20210804125211 71 103 3.0 12.0 0.00 0.01 0.00 66 1013.2
20210804124707 71 85 3.0 12.0 0.00 0.01 0.00 67 1013.1
20210804124208 71 72 3.0 9.0 0.00 0.01 0.00 66 1013.2
20210804123711 71 59 2.0 9.0 0.00 0.01 0.00 65 1013.2
20210804123209 71 89 3.0 9.0 0.00 0.01 0.00 63 1013.3
20210804122708 71 89 3.0 9.0 0.00 0.01 0.00 67 1013.3
20210804122207 71 90 4.0 12.0 0.00 0.01 0.00 64 1013.2
20210804121708 72 86 4.0 12.0 0.00 0.01 0.00 63 1013.3
20210804121208 72 73 3.0 8.0 0.00 0.01 0.00 65 1013.3
20210804120710 72 90 4.0 12.0 0.00 0.01 0.00 62 1013.2
20210804120208 72 35 4.0 12.0 0.00 0.01 0.00 63 1013.3
20210804115711 72 54 4.0 10.0 0.00 0.01 0.00 67 1013.3
20210804115207 72 34 4.0 10.0 0.00 0.01 0.00 65 1013.3
20210804114706 72 36 4.0 12.0 0.00 0.01 0.00 63 1013.3
20210804114207 72 136 4.0 10.0 0.00 0.01 0.00 65 1013.4
20210804113707 72 43 3.0 7.0 0.00 0.01 0.00 65 1013.4
20210804113204 72 60 4.0 8.0 0.00 0.01 0.00 63 1013.4
20210804112705 72 139 4.0 11.0 0.00 0.01 0.00 66 1013.4
20210804112204 71 71 4.0 11.0 0.00 0.01 0.00 67 1013.5
20210804111705 71 76 5.0 11.0 0.00 0.01 0.00 65 1013.5
20210804111203 71 67 5.0 11.0 0.00 0.01 0.00 64 1013.6
20210804110706 72 51 5.0 11.0 0.00 0.01 0.00 64 1013.6
20210804110204 73 84 3.0 11.0 0.00 0.02 0.00 64 1013.6
20210804105708 73 17 3.0 9.0 0.00 0.02 0.00 66 1013.7
20210804105205 72 109 4.0 9.0 0.00 0.02 0.00 63 1013.8
20210804104707 73 59 4.0 8.0 0.00 0.02 0.00 65 1013.7
20210804104207 73 63 4.0 9.0 0.00 0.02 0.00 66 1013.8
20210804103704 72 53 3.0 9.0 0.00 0.02 0.00 66 1013.8
20210804103205 72 115 4.0 8.0 0.00 0.02 0.00 66 1013.8
20210804102703 72 56 3.0 10.0 0.00 0.02 0.00 65 1013.8
20210804102205 72 63 3.0 10.0 0.00 0.02 0.00 67 1013.8
20210804101705 71 65 5.0 10.0 0.00 0.02 0.00 66 1013.8
20210804101204 71 58 5.0 10.0 0.00 0.02 0.00 66 1013.8
20210804100702 71 40 4.0 8.0 0.00 0.02 0.00 68 1013.9
20210804100204 71 89 3.0 8.0 0.00 0.02 0.00 67 1013.8
20210804095702 71 68 3.0 8.0 0.00 0.02 0.00 66 1013.9
20210804095201 71 67 3.0 7.0 0.00 0.02 0.00 68 1013.9
20210804094701 71 77 3.0 8.0 0.00 0.02 0.00 67 1014.1
20210804094203 70 47 3.0 8.0 0.00 0.02 0.00 68 1014.1
20210804093702 70 83 3.0 9.0 0.00 0.02 0.00 68 1014.1
20210804093203 69 92 4.0 9.0 0.00 0.02 0.00 69 1014.1
20210804092701 70 59 3.0 9.0 0.00 0.02 0.00 66 1014.1
20210804092201 70 44 3.0 9.0 0.00 0.02 0.00 68 1014.0
20210804091702 70 123 3.0 7.0 0.00 0.02 0.00 70 1014.0
20210804091202 70 67 3.0 7.0 0.00 0.02 0.00 69 1014.0
20210804090701 69 73 3.0 7.0 0.00 0.02 0.00 70 1014.1
20210804090202 69 72 3.0 9.0 0.00 0.02 0.00 71 1014.1
20210804085701 69 103 3.0 9.0 0.00 0.02 0.00 71 1014.1
20210804085202 68 63 3.0 7.0 0.00 0.02 0.00 71 1014.1
20210804084702 68 40 4.0 8.0 0.00 0.02 0.00 72 1014.1
20210804084202 68 44 4.0 8.0 0.00 0.02 0.00 71 1014.1
20210804083701 68 59 3.0 7.0 0.00 0.02 0.00 72 1014.1
20210804083203 68 66 3.0 6.0 0.00 0.02 0.00 73 1014.1
20210804082702 67 60 2.0 7.0 0.00 0.02 0.00 73 1014.2
20210804082201 67 130 3.0 7.0 0.00 0.02 0.00 73 1014.2
20210804081701 67 60 3.0 6.0 0.00 0.02 0.00 76 1014.3
20210804081202 66 41 3.0 10.0 0.00 0.02 0.00 77 1014.4
20210804080703 66 107 4.0 10.0 0.00 0.02 0.00 77 1014.3
20210804080202 65 50 4.0 8.0 0.00 0.02 0.00 77 1014.3
20210804075701 65 43 3.0 8.0 0.00 0.02 0.00 79 1014.3
20210804075201 64 71 3.0 8.0 0.00 0.02 0.00 79 1014.4
20210804074702 64 70 3.0 8.0 0.00 0.02 0.00 79 1014.5
20210804074204 64 62 4.0 9.0 0.00 0.02 0.00 80 1014.4
20210804073702 64 44 3.0 9.0 0.00 0.02 0.00 81 1014.4
20210804073202 63 74 2.0 8.0 0.00 0.02 0.00 82 1014.4
20210804072703 63 101 3.0 7.0 0.00 0.02 0.00 83 1014.3
20210804072202 63 89 3.0 8.0 0.00 0.02 0.00 85 1014.4
20210804071702 63 26 3.0 8.0 0.00 0.02 0.00 87 1014.3
20210804071200 62 51 3.0 8.0 0.00 0.02 0.00 88 1014.3
20210804070659 61 74 2.0 8.0 0.00 0.02 0.00 89 1014.2
20210804070202 61 107 3.0 8.0 0.00 0.02 0.00 90 1014.2
20210804065657 60 44 3.0 8.0 0.00 0.02 0.00 91 1014.2
20210804065159 60 81 2.0 8.0 0.00 0.02 0.00 91 1014.2
20210804064659 59 60 2.0 8.0 0.00 0.02 0.00 91 1014.2
20210804064157 59 113 2.0 8.0 0.00 0.02 0.00 91 1014.3
20210804063659 59 62 2.0 8.0 0.00 0.02 0.00 92 1014.3
20210804063156 58 61 2.0 8.0 0.00 0.02 0.00 92 1014.3
20210804062656 58 81 2.0 5.0 0.00 0.02 0.00 92 1014.3
20210804062156 57 59 1.0 4.0 0.00 0.02 0.00 92 1014.3
20210804061657 57 70 1.0 3.0 0.00 0.02 0.00 92 1014.3
20210804061155 57 70 1.0 3.0 0.00 0.02 0.00 92 1014.3
20210804060656 56 70 1.0 3.0 0.00 0.02 0.00 92 1014.3
20210804060155 56 71 0.0 3.0 0.00 0.02 0.00 92 1014.3
20210804055656 56 71 0.0 0.0 0.00 0.02 0.00 92 1014.3
20210804055155 55 71 0.0 0.0 0.00 0.02 0.00 92 1014.4
20210804054654 55 71 0.0 0.0 0.00 0.02 0.00 92 1014.3
20210804054153 55 71 0.0 0.0 0.00 0.02 0.00 92 1014.4
20210804053652 55 71 0.0 0.0 0.00 0.02 0.00 92 1014.3
20210804053151 55 71 0.0 0.0 0.00 0.02 0.00 92 1014.1
20210804052651 54 71 0.0 0.0 0.00 0.02 0.00 91 1014.0
20210804052150 54 71 0.0 0.0 0.00 0.02 0.00 91 1014.0
20210804051649 54 71 0.0 0.0 0.00 0.02 0.00 91 1014.0
20210804051150 54 71 0.0 0.0 0.00 0.02 0.00 91 1014.0
20210804050651 54 71 0.0 0.0 0.00 0.02 0.00 91 1014.0
20210804050147 54 71 0.0 0.0 0.00 0.02 0.00 91 1013.9
20210804045647 54 71 0.0 0.0 0.00 0.02 0.00 91 1013.9
20210804045147 54 69 0.0 0.0 0.00 0.02 0.00 91 1013.8
20210804044647 54 59 0.0 0.0 0.00 0.02 0.00 91 1013.9
20210804044146 54 59 0.0 0.0 0.00 0.02 0.00 91 1013.8
20210804043645 54 59 0.0 0.0 0.00 0.02 0.00 91 1013.8
20210804043144 54 59 0.0 3.0 0.00 0.02 0.00 91 1013.8
20210804042645 54 59 1.0 3.0 0.00 0.02 0.00 91 1013.8
20210804042141 54 59 1.0 3.0 0.00 0.02 0.00 91 1013.7
20210804041641 54 59 1.0 3.0 0.00 0.02 0.00 91 1013.7
20210804041141 54 59 1.0 3.0 0.00 0.02 0.00 91 1013.6
20210804040642 54 60 1.0 3.0 0.00 0.02 0.00 91 1013.6
20210804040143 54 60 1.0 3.0 0.00 0.02 0.00 90 1013.7
20210804035641 54 51 2.0 4.0 0.00 0.02 0.00 90 1013.6
20210804035143 54 51 2.0 4.0 0.00 0.02 0.00 91 1013.6
20210804034641 54 58 1.0 3.0 0.00 0.02 0.00 91 1013.6
20210804034141 54 59 1.0 3.0 0.00 0.02 0.00 91 1013.7
20210804033643 54 59 0.0 0.0 0.00 0.02 0.00 90 1013.7
20210804033139 54 59 0.0 0.0 0.00 0.02 0.00 90 1013.7
20210804032638 54 59 0.0 0.0 0.00 0.02 0.00 90 1013.7
20210804032139 54 59 0.0 0.0 0.00 0.02 0.00 90 1013.7
20210804031639 54 59 0.0 0.0 0.00 0.02 0.00 90 1013.8
20210804031139 54 59 0.0 0.0 0.00 0.02 0.00 90 1013.7
20210804030641 54 59 0.0 0.0 0.00 0.02 0.00 90 1013.7
20210804030140 54 59 0.0 0.0 0.00 0.02 0.00 90 1013.7
20210804025640 54 59 0.0 0.0 0.00 0.02 0.00 89 1013.8
20210804025139 54 59 0.0 0.0 0.00 0.02 0.00 89 1013.8